Location: Maiden
(35.5760°N, 81.2120°W)
Time: 03:08:35
(UTC-04:00)

IRS-1A Rocket - Pass Details

Date: 02 August 2020
Orbit: 851 x 930 km, 99.2° (Epoch: 12 August)

Event Time Altitude Azimuth Distance (km) Brightness Sun altitude
Rises 20:52:14 0° 155° (SSE) 3,418 6.9 -5.4°
Reaches altitude 10° 20:54:36 10° 152° (SSE) 2,492 6.2 -5.9°
Maximum altitude 21:00:03 63° 73° (ENE) 972 4.4 -6.9°
Drops below altitude 10° 21:05:38 10° 353° (N) 2,554 7.2 -7.9°
Sets 21:08:05 0° 351° (N) 3,509 8.0 -8.3°
